Location: Home
(42.5358°N, 72.7383°W)
Time: 15:50:20
(UTC-05:00)

Vanguard 1 - Pass Details

Date: 07 December 2021
Orbit: 652 x 3830 km, 34.2° (Epoch: 19 January)

Event Time Altitude Azimuth Distance (km) Brightness Sun altitude
Rises 00:51:51 0° 257° (WSW) 7,350 - -65.4°
Reaches altitude 10° 00:56:26 10° 255° (WSW) 6,574 - -64.8°
Maximum altitude 01:19:18 68° 179° (S) 3,926 - -61.7°
Exits shadow 01:27:42 47° 117° (ESE) 4,211 13.0 -60.4°
Drops below altitude 10° 01:38:49 10° 102° (ESE) 5,745 14.2 -58.7°
Sets 01:42:29 0° 100° (E) 6,430 14.6 -58.1°
